This demonstration page uses our WeatherBlox Daily Observations layout. Learn more.

Left ArrowRight Arrow

Hourly Observations for June 5, 2016

Temp ( °F °C ) Dew Point ( °F °C ) Humidity (%) Winds ( mph kmh ) Pressure ( in mb ) Visibility ( mi km ) Precip ( " mm )
12:52 am 00:52 Clear 62 16.7 55 12.8 78 78 SW 3 6 29.87 1012 10 16 0.00 0.00
1:52 am 01:52 Clear 64 17.8 54 12.2 70 70 NW 3 6 29.86 1011 10 16 0.00 0.00
2:52 am 02:52 Clear 63 17.2 54 12.2 73 73 WNW 3 6 29.86 1011 10 16 0.00 0.00
3:52 am 03:52 Clear 62 16.7 54 12.2 75 75 W 3 6 29.86 1011 10 16 0.00 0.00
4:52 am 04:52 Clear 60 15.6 54 12.2 80 80 WNW 3 6 29.87 1012 10 16 0.00 0.00
5:52 am 05:52 Clear 59 15 53 11.7 81 81 NW 7 11 29.89 1012 10 16 0.00 0.00
6:52 am 06:52 Sunny 61 16.1 55 12.8 81 81 NW 6 9 29.91 1013 10 16 0.00 0.00
7:52 am 07:52 Sunny 65 18.3 57 13.9 76 76 NNW 7 11 29.91 1013 10 16 0.00 0.00
8:52 am 08:52 Sunny 70 21.1 56 13.3 61 61 N 10 17 29.92 1013 10 16 0.00 0.00
9:52 am 09:52 Sunny 72 22.2 56 13.3 57 57 N 12 19 29.92 1013 10 16 0.00 0.00
10:52 am 10:52 Mostly Sunny 75 23.9 57 13.9 54 54 N 13 20 29.93 1014 10 16 0.00 0.00
11:52 am 11:52 Partly Cloudy 76 24.4 58 14.4 54 54 NW 9 15 29.93 1014 10 16 0.00 0.00
12:52 pm 12:52 Mostly Sunny 77 25 57 13.9 50 50 NNW 16 26 29.93 1014 10 16 0.00 0.00
1:52 pm 13:52 Mostly Sunny 79 26.1 56 13.3 45 45 NW 13 20 29.91 1013 10 16 0.00 0.00
2:52 pm 14:52 Mostly Sunny 78 25.6 56 13.3 47 47 NW 12 19 29.90 1013 10 16 0.00 0.00
3:52 pm 15:52 Mostly Sunny 79 26.1 54 12.2 42 42 NW 10 17 29.89 1012 10 16 0.00 0.00
4:52 pm 16:52 Mostly Sunny 78 25.6 55 12.8 45 45 N 13 20 29.89 1012 10 16 0.00 0.00
5:52 pm 17:52 Mostly Sunny 79 26.1 54 12.2 42 42 N 14 22 29.88 1012 10 16 0.00 0.00
6:52 pm 18:52 Mostly Sunny 77 25 55 12.8 47 47 N 10 17 29.88 1012 10 16 0.00 0.00
7:52 pm 19:52 Sunny 74 23.3 57 13.9 56 56 NNW 7 11 29.88 1012 10 16 0.00 0.00
8:52 pm 20:52 Clear 71 21.7 57 13.9 61 61 NNW 3 6 29.89 1012 10 16 0.00 0.00
9:52 pm 21:52 Clear 65 18.3 56 13.3 73 73 S 3 6 29.91 1013 10 16 0.00 0.00
10:52 pm 22:52 Clear 63 17.2 56 13.3 78 78 Calm 29.92 1013 10 16 0.00 0.00
11:52 pm 23:52 Clear 61 16.1 56 13.3 84 84 Calm 29.92 1013 10 16 0.00 0.00

Powered by AerisWeather